FLOCK 3P-64

Last updated on Wed Feb 14 2018 16:20:33 GMT+0000 (Coordinated Universal Time)

1 42034U 17008CQ 18044.87852961 .00001116 00000-0 49100-4 0 9999 2 42034 97.4658 110.4765 0009567 89.7911 270.4422 15.23924274 55325
UTC large
Height (km)
Speed (km/s)
/
Latitude / Longitude
Inclination (degrees)
Orbital Period (minutes)
Azimuth
Elevation
Range (km)
Doppler Factor

Next 0 passes for location: London (51.5072 / 0.1276)

Sorry there are no passes over London.